Tracking 35280 objects as of 7-Sep-2026
HD Live streaming from Space Station
objects crossing your sky now

SL-4 R/B


SL-4 R/B is no longer on orbit


NORAD ID: 16248
Int'l Code: 1985-106B
Launch date: November 13, 1985
Source: Commonwealth of Independent States (former USSR) (CIS)
Launch site: PLESETSK MISSILE AND SPACE COMPLEX (PKMTR)
Decay date: 1985-11-28

Note: This is a ROCKET BODY
Your satellite tracking list
Your tracking list is empty




NASA's NSSDC Master Catalog

Two Line Element Set (TLE):
1 16248U 85106  B 85331.60533435  .06854539 +81185-5 +44021-3 0  9992
2 16248 072.8594 207.5795 0030125 059.0410 301.4534 16.37628910002277
Source of the keplerian elements: AFSPC